Weerstation Grootegast  Weerstation Grootegast


15 daagse weersverwachting Ennis (IE)

  • Overzicht
  • Per uur
  • 15 dagen
  • Extra
  • Vergelijk
  • Kaarten
  • Dagkaart
  • Meer »
  • Info
  • Statistieken
  • Directe link
    Temp 6h Neerslag Wind  
 08:18     18:24    Daglengte: 10:06 Vandaag
13:00
10°
 
3
19:00
 
4
 08:20     18:21    Daglengte: 10:01 Morgen
01:00
1.9 mm
6
07:00
5.5 mm
3
13:00
10°
1.1 mm
5
19:00
 
5
 08:21     18:19    Daglengte: 9:58 Zaterdag 24 Okt
01:00
11°
7.3 mm
10
07:00
11°
15.1 mm
7
13:00
11°
11.8 mm
8
19:00
 
7
 08:23     18:17    Daglengte: 9:54 Zondag 25 Okt
01:00
20.5 mm
8
06:00
13.1 mm
6
Locatie info
Region: Clare
Latitude: 52.8469°N
Longitude: -8.9882°E
5 masl
Postcode: -1
Temp/Neerslag /Baro Onweer/Dauwpunt
    Temp Baro 1h Neerslag Dauwpunt Wind UV Bewolking  
 08:18     18:24    Daglengte: 10:06 Vandaag
10:00
Voelt als: 6.4°
1008.4 hPa   2.7°
1
Windvlaag: 0.6 m/s
18%
11:00
Voelt als: 8.0°
1008.5 hPa   3.3°
1
Windvlaag: 0.7 m/s
28%
12:00
10°
Voelt als: 8.9°
1008.5 hPa   3.6°
2
Windvlaag: 1.6 m/s
50%
13:00
10°
1008.4 hPa   3.7°
3
Windvlaag: 2.3 m/s
66%
14:00
11°
1008.0 hPa
12%
3.5°
3
Windvlaag: 2.5 m/s
66%
15:00
11°
1007.5 hPa
19%
3.2°
4
Windvlaag: 2.9 m/s
70%
16:00
11°
1007.1 hPa
17%
3.7°
4
Windvlaag: 3 m/s
83%
17:00
10°
1006.7 hPa
16%
4.2°
4
Windvlaag: 2.9 m/s
70%
18:00
Voelt als: 7.7°
1006.4 hPa
12%
4.1°
3
Windvlaag: 2.8 m/s
71%
19:00
Voelt als: 6.9°
1006.0 hPa
12%
3.8°
4
Windvlaag: 3.5 m/s
67%
20:00
Voelt als: 6.4°
1005.7 hPa
13%
3.7°
4
Windvlaag: 4.1 m/s
84%
21:00
Voelt als: 6.0°
1005.3 hPa
17%
4.1°
5
Windvlaag: 4.7 m/s
88%
22:00
Voelt als: 5.5°
1004.7 hPa 0.2 mm
73%
4.7°
6
Windvlaag: 5.1 m/s
91%
23:00
Voelt als: 5.4°
1004.0 hPa 0.3 mm
82%
5.2°
6
Windvlaag: 5.1 m/s
91%
 08:20     18:21    Daglengte: 10:01 Morgen
00:00
Voelt als: 5.4°
1003.2 hPa 0.6 mm
82%
5.9°
6
Windvlaag: 5.2 m/s
91%
01:00
Voelt als: 5.6°
1002.3 hPa 0.8 mm
82%
6.6°
6
Windvlaag: 5.2 m/s
91%
02:00
Voelt als: 6.2°
1001.6 hPa 1.9 mm
82%
7.5°
6
Windvlaag: 5.3 m/s
91%
03:00
10°
Voelt als: 7.2°
1001.8 hPa 1.7 mm
82%
8.5°
5
Windvlaag: 4.4 m/s
91%
04:00
10°
Voelt als: 7.5°
1001.9 hPa 1.1 mm
82%
8.0°
4
Windvlaag: 3 m/s
83%
05:00
Voelt als: 7.5°
1001.9 hPa 0.8 mm
82%
6.9°
3
Windvlaag: 1.3 m/s
45%
06:00
Voelt als: 6.5°
1002.3 hPa
80%
5.5°
4
Windvlaag: 1.3 m/s
30%
07:00
Voelt als: 5.4°
1002.8 hPa
27%
4.4°
3
Windvlaag: 1.5 m/s
17%
08:00
Voelt als: 5.1°
1003.2 hPa
14%
4.3°
3
Windvlaag: 1.7 m/s
29%
09:00
Voelt als: 5.4°
1003.9 hPa
14%
4.9°
3
Windvlaag: 1.7 m/s
36%
10:00
Voelt als: 6.4°
1004.3 hPa
66%
5.7°
3
Windvlaag: 1.6 m/s
62%
11:00
10°
Voelt als: 7.1°
1004.9 hPa 1.1 mm
82%
6.1°
5
Windvlaag: 1.8 m/s
81%
12:00
10°
Voelt als: 7.4°
1005.1 hPa
82%
6.0°
5
Windvlaag: 2.1 m/s
73%
13:00
10°
1005.5 hPa
81%
5.1°
5
Windvlaag: 2.2 m/s
53%
14:00
11°
1005.5 hPa
82%
4.2°
6
Windvlaag: 3 m/s
46%
15:00
11°
1005.4 hPa
42%
3.8°
6
Windvlaag: 3.2 m/s
47%
16:00
11°
1005.2 hPa
65%
4.0°
5
Windvlaag: 3.5 m/s
47%
17:00
10°
1005.0 hPa
22%
3.8°
5
Windvlaag: 4 m/s
59%
18:00
10°
Voelt als: 7.3°
1004.5 hPa
19%
4.0°
4
Windvlaag: 4 m/s
77%
19:00
Voelt als: 6.5°
1004.1 hPa
14%
3.8°
5
Windvlaag: 4.8 m/s
69%
20:00
Voelt als: 6.0°
1003.2 hPa
14%
4.1°
5
Windvlaag: 5.6 m/s
61%
21:00
Voelt als: 5.7°
1002.1 hPa
16%
4.6°
7
Windvlaag: 6.3 m/s
91%
22:00
Voelt als: 5.5°
1000.5 hPa 1.2 mm
28%
5.3°
7
Windvlaag: 7 m/s
91%
23:00
Voelt als: 5.7°
998.8 hPa 1.4 mm
82%
6.2°
8
Windvlaag: 7.6 m/s
91%
 08:21     18:19    Daglengte: 9:58 Zaterdag 24 Okt
00:00
10°
997.0 hPa 2.4 mm
82%
7.0°
10
Windvlaag: 9.4 m/s
91%
01:00
11°
995.1 hPa 2.3 mm
82%
7.9°
10
Windvlaag: 10.1 m/s
90%
02:00
12°
993.1 hPa 2.1 mm
82%
8.9°
11
Windvlaag: 10.3 m/s
91%
03:00
12°
991.3 hPa 1.9 mm
82%
9.4°
11
Windvlaag: 9.9 m/s
90%
04:00
12°
990.3 hPa 2.2 mm
100%
9.2°
10
Windvlaag: 9.1 m/s
100%
05:00
12°
988.9 hPa 2.9 mm
100%
10.3°
9
Windvlaag: 5.9 m/s
100%
06:00
12°
989.6 hPa 3.5 mm
100%
9.7°
8
Windvlaag: 5.9 m/s
100%
07:00
11°
989.5 hPa 2.4 mm
100%
8.9°
7
Windvlaag: 6 m/s
100%
08:00
10°
989.8 hPa 3.3 mm
100%
8.8°
7
Windvlaag: 4.3 m/s
100%
09:00
10°
Voelt als: 7.1°
990.2 hPa 2.8 mm
100%
7.7°
5
Windvlaag: 3.3 m/s
100%
10:00
10°
Voelt als: 7.3°
990.4 hPa
86%
7.1°
6
Windvlaag: 3.6 m/s
88%
11:00
10°
990.5 hPa
90%
6.6°
6
Windvlaag: 4.2 m/s
86%
12:00
11°
990.7 hPa 3.2 mm
93%
6.7°
7
Windvlaag: 4.9 m/s
86%
13:00
11°
990.7 hPa 2.5 mm
96%
6.0°
8
Windvlaag: 5 m/s
55%
14:00
11°
990.4 hPa
49%
5.3°
8
Windvlaag: 5.8 m/s
19%
15:00
11°
989.9 hPa
31%
4.1°
9
Windvlaag: 6.2 m/s
32%
16:00
11°
989.5 hPa
31%
4.4°
8
Windvlaag: 5.9 m/s
31%
17:00
10°
989.3 hPa
45%
4.4°
8
Windvlaag: 6.4 m/s
36%
18:00
Voelt als: 6.0°
988.9 hPa
45%
4.6°
7
Windvlaag: 6.3 m/s
46%
19:00
Voelt als: 5.4°
988.5 hPa
22%
4.5°
7
Windvlaag: 6 m/s
40%
20:00
Voelt als: 5.2°
988.0 hPa 6.0 mm
21%
4.5°
7
Windvlaag: 11.9 m/s
48%
21:00
Voelt als: 5.0°
987.4 hPa
21%
4.6°
7
Windvlaag: 13 m/s
55%
22:00
Voelt als: 5.0°
986.8 hPa
80%
4.8°
8
Windvlaag: 13 m/s
59%
23:00
Voelt als: 5.1°
986.6 hPa 4.0 mm
98%
5.1°
8
Windvlaag: 14.6 m/s
68%
 08:23     18:17    Daglengte: 9:54 Zondag 25 Okt
00:00
Voelt als: 5.1°
986.5 hPa 4.0 mm
100%
5.2°
8
Windvlaag: 14.7 m/s
74%
01:00
Voelt als: 5.1°
986.4 hPa 6.4 mm
100%
5.1°
8
Windvlaag: 7.3 m/s
70%
01:00
Voelt als: 4.9°
986.8 hPa
86%
4.8°
7
Windvlaag: 13.7 m/s
67%
02:00
Voelt als: 4.8°
987.2 hPa
84%
4.7°
6
Windvlaag: 13.4 m/s
68%
03:00
Voelt als: 4.8°
987.4 hPa 6.6 mm
100%
4.8°
6
Windvlaag: 12.1 m/s
82%
04:00
Voelt als: 4.7°
987.7 hPa 6.5 mm
100%
4.6°
6
Windvlaag: 11.5 m/s
63%
05:00
Voelt als: 4.7°
988.3 hPa
35%
4.5°
6
Windvlaag: 10.8 m/s
71%
06:00
Voelt als: 4.4°
988.8 hPa
24%
4.3°
6
Windvlaag: 1.6 m/s
71%
07:00
Voelt als: 4.9°
989.7 hPa 20.8 mm
100%
4.8°
6
Windvlaag: 10.3 m/s
83%
08:00
Voelt als: 5.4°
990.2 hPa 21.0 mm
100%
5.2°
6
Windvlaag: 8.5 m/s
69%
Temp/Neerslag /Baro Onweer/Dauwpunt
    Temp Baro Neerslag Dauwpunt Wind Bewolking  
 08:18     18:24    Daglengte: 10:06 Vandaag
10:00
Voelt als: 6.4°
1008.4 hPa   2.7°
1
18%
13:00
10°
1008.4 hPa   3.7°
3
66%
16:00
11°
1007.1 hPa   3.7°
4
83%
19:00
Voelt als: 6.9°
1006.0 hPa   3.8°
4
67%
22:00
Voelt als: 5.5°
1004.7 hPa 0.2 mm 4.7°
6
91%
 08:20     18:21    Daglengte: 10:01 Morgen
01:00
Voelt als: 5.6°
1002.3 hPa 1.7 mm 6.6°
6
91%
04:00
10°
Voelt als: 7.5°
1001.9 hPa 4.7 mm 8.0°
4
83%
07:00
Voelt als: 5.4°
1002.8 hPa 0.8 mm 4.4°
3
17%
10:00
Voelt als: 6.4°
1004.3 hPa   5.7°
3
62%
13:00
10°
1005.5 hPa 1.1 mm 5.1°
5
53%
16:00
11°
1005.2 hPa   4.0°
5
47%
19:00
Voelt als: 6.5°
1004.1 hPa   3.8°
5
69%
22:00
Voelt als: 5.5°
1000.5 hPa 1.2 mm 5.3°
7
91%
 08:21     18:19    Daglengte: 9:58 Zaterdag 24 Okt
01:00
11°
995.1 hPa 6.1 mm 7.9°
10
90%
04:00
12°
990.3 hPa 6.2 mm 9.2°
10
100%
07:00
11°
989.5 hPa 8.9 mm 8.9°
7
100%
10:00
10°
Voelt als: 7.3°
990.4 hPa 6.1 mm 7.1°
6
88%
13:00
11°
990.7 hPa 5.7 mm 6.0°
8
55%
16:00
11°
989.5 hPa   4.4°
8
31%
19:00
Voelt als: 5.4°
988.5 hPa   4.5°
7
40%
22:00
Voelt als: 5.0°
986.8 hPa 6.0 mm 4.8°
8
59%
 08:23     18:17    Daglengte: 9:54 Zondag 25 Okt
01:00
Voelt als: 5.1°
986.4 hPa 14.5 mm 5.1°
8
70%
03:00
Voelt als: 4.8°
987.4 hPa 6.6 mm 4.8°
6
82%
06:00
Voelt als: 4.4°
988.8 hPa 6.5 mm 4.3°
6
71%
09:00
Voelt als: 6.3°
990.8 hPa 62.9 mm 5.8°
6
51%
12:00
11°
992.6 hPa 64.2 mm 6.8°
6
21%
15:00
10°
Voelt als: 7.0°
995.3 hPa 19.4 mm 6.7°
5
64%
18:00
Voelt als: 6.0°
996.7 hPa 19.6 mm 6.3°
5
85%
21:00
Voelt als: 5.5°
998.9 hPa 19.6 mm 6.4°
5
68%
 08:25     18:15    Daglengte: 9:50 Maandag 26 Okt
00:00
Voelt als: 5.2°
1001.0 hPa 20.3 mm 6.6°
5
51%
03:00
Voelt als: 5.4°
1002.6 hPa 20.5 mm 5.7°
5
38%
06:00
Voelt als: 5.6°
1004.3 hPa 20.5 mm 4.7°
4
26%
09:00
Voelt als: 6.8°
1006.1 hPa 20.7 mm 5.6°
5
58%
12:00
11°
1007.8 hPa 20.8 mm 6.4°
6
90%
15:00
10°
Voelt als: 7.6°
1007.4 hPa 20.8 mm 6.6°
5
91%
18:00
Voelt als: 7.0°
1006.9 hPa 20.8 mm 6.7°
3
92%
21:00
10°
Voelt als: 7.1°
1003.7 hPa 21.7 mm 7.9°
5
92%
 08:27     18:13    Daglengte: 9:46 Dinsdag 27 Okt
00:00
10°
1000.4 hPa 24.2 mm 9.1°
6
92%
03:00
12°
996.1 hPa 24.7 mm 10.5°
6
92%
06:00
13°
992.2 hPa 25.6 mm 11.7°
7
92%
09:00
13°
992.5 hPa 25.8 mm 9.3°
7
75%
12:00
12°
993.0 hPa 26.5 mm 6.6°
8
58%
15:00
12°
991.1 hPa 27.1 mm 6.4°
9
74%
18:00
11°
989.2 hPa 27.4 mm 6.2°
9
90%
21:00
10°
988.6 hPa 27.9 mm 6.8°
9
91%
 08:29     18:11    Daglengte: 9:42 Woensdag 28 Okt
00:00
10°
Voelt als: 6.0°
988.0 hPa 29.1 mm 7.3°
10
92%
03:00
Voelt als: 5.3°
989.1 hPa 29.9 mm 7.3°
10
92%
06:00
Voelt als: 4.8°
990.2 hPa 31.4 mm 7.3°
11
92%
09:00
10°
Voelt als: 5.6°
993.6 hPa 32.3 mm 7.2°
11
89%
12:00
10°
997.0 hPa 33.9 mm 7.2°
11
86%
15:00
10°
Voelt als: 5.9°
1000.8 hPa 35.5 mm 6.1°
10
74%
18:00
Voelt als: 5.5°
1004.7 hPa 36.4 mm 4.9°
8
62%
21:00
Voelt als: 5.9°
1006.6 hPa 36.6 mm 5.9°
7
77%
 08:31     18:09    Daglengte: 9:38 Donderdag 29 Okt
00:00
Voelt als: 6.5°
1008.1 hPa 38.0 mm 6.9°
6
92%
03:00
11°
1006.9 hPa 44.1 mm 8.4°
7
92%
06:00
12°
1006.8 hPa 88.3 mm 9.3°
8
92%
12:00
13°
1006.6 hPa 89.4 mm 11.3°
9
92%
18:00
Voelt als: 6.0°
1012.5 hPa 91.8 mm 4.6°
8
73%
 08:33     18:07    Daglengte: 9:34 Vrijdag 30 Okt
00:00
10°
Voelt als: 7.0°
1018.1 hPa 92.3 mm 3.3°
6
36%
06:00
Voelt als: 6.4°
1022.2 hPa 92.7 mm 4.7°
6
81%
12:00
12°
1026.1 hPa 93.1 mm 6.1°
5
90%
18:00
11°
1026.7 hPa 93.6 mm 8.1°
3
92%
 08:35     18:05    Daglengte: 9:30 Zaterdag 31 Okt
00:00
11°
1027.3 hPa 93.7 mm 10.4°
5
88%
06:00
13°
1025.3 hPa 114.5 mm 12.0°
5
89%
12:00
12°
981.1 hPa 122.7 mm 8.1°
13
1%
18:00
10°
Voelt als: 5.6°
991.1 hPa 124.2 mm 4.6°
12
1%
 08:36     18:03    Daglengte: 9:27 Zondag 01 Nov
00:00
10°
Voelt als: 7.1°
994.8 hPa 124.9 mm 6.7°
6
0%
06:00
10°
Voelt als: 8.2°
1015.0 hPa 0.8 mm 7.9°
3
80%
12:00
12°
1016.0 hPa 0.7 mm 8.8°
4
72%
18:00
11°
1015.9 hPa 0.6 mm 8.4°
3
74%
 08:38     18:02    Daglengte: 9:24 Maandag 02 Nov
00:00
Voelt als: 8.0°
1016.8 hPa 0.4 mm 7.6°
3
73%
06:00
Voelt als: 7.9°
1016.7 hPa 0.4 mm 7.5°
3
71%
12:00
11°
1017.3 hPa 1.3 mm 8.3°
3
80%
18:00
10°
Voelt als: 8.6°
1017.7 hPa 0.9 mm 7.6°
2
73%
 08:40     18:00    Daglengte: 9:20 Dinsdag 03 Nov
00:00
Voelt als: 7.8°
1020.0 hPa 0.4 mm 7.0°
2
55%
06:00
Voelt als: 7.4°
1021.4 hPa 0.3 mm 6.4°
2
57%
12:00
11°
1022.7 hPa 0.3 mm 7.6°
2
66%
18:00
Voelt als: 8.7°
1022.7 hPa 0.6 mm 7.0°
2
73%
 08:42     17:58    Daglengte: 9:16 Woensdag 04 Nov
00:00
Voelt als: 7.1°
1023.7 hPa   6.0°
2
69%
06:00
Voelt als: 6.8°
1023.4 hPa 0.5 mm 5.6°
1
70%
12:00
10°
1023.5 hPa 0.8 mm 7.3°
2
70%
18:00
Voelt als: 7.7°
1022.7 hPa 0.8 mm 6.9°
2
69%
 08:44     17:56    Daglengte: 9:12 Donderdag 05 Nov
00:00
Voelt als: 7.1°
1022.6 hPa 0.4 mm 6.3°
1
70%
06:00
Voelt als: 6.7°
1020.9 hPa 0.5 mm 6.2°
2
71%
12:00
10°
1021.0 hPa 0.6 mm 7.4°
2
69%
18:00
Voelt als: 7.7°
1020.6 hPa 0.5 mm 6.8°
2
73%
 08:46     17:54    Daglengte: 9:08 Vrijdag 06 Nov
00:00
Voelt als: 6.4°
1021.2 hPa 0.6 mm 5.9°
2
69%
06:00
Voelt als: 5.6°
1020.8 hPa 0.8 mm 5.6°
2
74%
  CAPE Lifted Index Hail Supercell Tornado SRH 3km CL BTM PRES CL TOP PRES Swiss DWD icon SMHI TS
 08:18     18:24    Daglengte: 10:06 Vandaag
10:00 0 J/kg 13.4 K 0 % 0 % 0 % 0 m²/s² 0 0 19.13 0
11:00 8 J/kg 13.0 K 0 % 0 % 0 % 0 m²/s² 0 0 18.58 0
12:00 16 J/kg 12.5 K 0 % 0 % 0 % 0 m²/s² 0 0 18.11 1
13:00 20 J/kg 11.8 K 0 % 0 % 0 % 0 m²/s² 0 0 17.26 2
14:00 19 J/kg 12.0 K 0 % 0 % 0 % 0 m²/s² 0 0 16.92 2
15:00 14 J/kg 12.5 K 0 % 0 % 0 % 0 m²/s² 0 0 16.94 3
16:00 10 J/kg 12.4 K 0 % 0 % 0 % 0 m²/s² 0 0 15.94 3
17:00 0 J/kg 12.6 K 0 % 0 % 0 % 0 m²/s² 0 0 15.54 3
18:00 3 J/kg 12.0 K 0 % 0 % 0 % 0 m²/s² 0 0 14.13 2
19:00 0 J/kg 12.2 K 0 % 0 % 0 % 0 m²/s² 0 0 13.19 2
20:00 0 J/kg 11.4 K 0 % 0 % 0 % 0 m²/s² 0 0 11.7 3
21:00 0 J/kg 9.9 K 0 % 0 % 0 % 0 m²/s² 0 0 10.14 3
22:00 0 J/kg 7.9 K 0 % 0 % 0 % 0 m²/s² 0 0 8.14 3
23:00 0 J/kg 6.4 K 0 % 0 % 0 % 0 m²/s² 0 0 6.97 61
 08:20     18:21    Daglengte: 10:01 Morgen
00:00 0 J/kg 4.8 K 0 % 0 % 0 % 0 m²/s² 0 0 5.04 61
01:00 0 J/kg 3.5 K 0 % 0 % 0 % 0 m²/s² 0 0 3.8 61
02:00 0 J/kg 3.7 K 0 % 0 % 0 % 0 m²/s² 0 0 4.15 61
03:00 35 J/kg 5.8 K 0 % 0 % 0 % 0 m²/s² 0 0 6.13 61
04:00 51 J/kg 6.9 K 0 % 0 % 0 % 0 m²/s² 0 0 10.5 61
05:00 38 J/kg 8.5 K 0 % 0 % 0 % 0 m²/s² 0 0 16 61
06:00 15 J/kg 9.9 K 0 % 0 % 0 % 0 m²/s² 0 0 19.11 3
07:00 16 J/kg 10.0 K 0 % 0 % 0 % 0 m²/s² 0 0 19.63 3
08:00 30 J/kg 9.0 K 0 % 0 % 0 % 0 m²/s² 0 0 12.69 2
09:00 71 J/kg 8.4 K 0 % 0 % 0 % 0 m²/s² 0 0 13.29 1
10:00 87 J/kg 8.5 K 0 % 0 % 0 % 0 m²/s² 0 0 13.93 2
11:00 69 J/kg 9.5 K 0 % 0 % 0 % 0 m²/s² 0 0 13.91 3
12:00 63 J/kg 9.9 K 0 % 0 % 0 % 0 m²/s² 0 0 14.19 3
13:00 67 J/kg 9.9 K 0 % 0 % 0 % 0 m²/s² 0 0 13.8 3
14:00 62 J/kg 10.4 K 0 % 0 % 0 % 0 m²/s² 0 0 13.31 2
15:00 55 J/kg 10.5 K 0 % 0 % 0 % 0 m²/s² 0 0 12.99 2
16:00 86 J/kg 10.1 K 0 % 0 % 0 % 0 m²/s² 0 0 12.11 1
17:00 67 J/kg 11.1 K 0 % 0 % 0 % 0 m²/s² 0 0 12.6 3
18:00 50 J/kg 11.4 K 0 % 0 % 0 % 0 m²/s² 0 0 12.63 3
19:00 27 J/kg 11.7 K 0 % 0 % 0 % 0 m²/s² 0 0 12.33 3
20:00 9 J/kg 11.8 K 0 % 0 % 0 % 0 m²/s² 0 0 12.67 2
21:00 0 J/kg 11.9 K 0 % 0 % 0 % 0 m²/s² 0 0 12.29 3
22:00 0 J/kg 11.1 K 0 % 0 % 0 % 0 m²/s² 0 0 11.31 3
23:00 0 J/kg 9.7 K 0 % 0 % 0 % 0 m²/s² 0 0 9.88 61
 08:21     18:19    Daglengte: 9:58 Zaterdag 24 Okt
00:00 0 J/kg 7.9 K 0 % 0 % 0 % 0 m²/s² 0 0 8.02 61
01:00 0 J/kg 6.3 K 0 % 0 % 0 % 0 m²/s² 0 0 7.17 61
02:00 0 J/kg 5.8 K 0 % 0 % 0 % 0 m²/s² 0 0 7.69 61
03:00 0 J/kg 4.5 K 0 % 0 % 0 % 0 m²/s² 0 0 5.31 61
04:00 0 J/kg 3.8 K 0 % 0 % 0 % 0 m²/s² 0 0 3.92 61
05:00 0 J/kg 3.1 K 0 % 0 % 0 % 0 m²/s² 0 0 3.4 63
06:00 26 J/kg 7.0 K 0 % 0 % 0 % 0 m²/s² 0 0 7.12 63
07:00 0 J/kg 6.7 K 0 % 0 % 0 % 0 m²/s² 0 0 6.88 61
08:00 8 J/kg 6.4 K 0 % 0 % 0 % 0 m²/s² 0 0 6.61 61
09:00 33 J/kg 5.9 K 0 % 0 % 0 % 0 m²/s² 0 0 6.95 61
10:00 65 J/kg 6.8 K 0 % 0 % 0 % 0 m²/s² 0 0 8.09 1
11:00 68 J/kg 6.6 K 0 % 0 % 0 % 0 m²/s² 0 0 10.14 2
12:00 115 J/kg 5.0 K 0 % 0 % 0 % 0 m²/s² 0 0 5.6 2
13:00 232 J/kg 4.5 K 0 % 0 % 0 % 0 m²/s² 0 0 8.31 2
14:00 151 J/kg 4.1 K 0 % 0 % 0 % 0 m²/s² 0 0 8 1
15:00 161 J/kg 2.9 K 0 % 0 % 0 % 0 m²/s² 0 0 5.96 1
16:00 153 J/kg 2.2 K 0 % 0 % 0 % 0 m²/s² 0 0 5.5 2
17:00 177 J/kg 0.9 K 0 % 0 % 0 % 0 m²/s² 0 0 3.48 2
18:00 141 J/kg 0.3 K 0 % 0 % 0 % 0 m²/s² 0 0 1.68 2
19:00 89 J/kg -1.0 K 0 % 0 % 0 % 0 m²/s² 0 0 0.26 2
20:00 113 J/kg -1.7 K 0 % 0 % 0 % 0 m²/s² 0 0 -0.32 1
21:00 208 J/kg -2.1 K 0 % 0 % 0 % 0 m²/s² 0 0 -0.45 3
22:00 225 J/kg -1.8 K 0 % 0 % 0 % 0 m²/s² 0 0 0.09 3
23:00 260 J/kg -2.3 K 0 % 0 % 0 % 0 m²/s² 0 0 -0.29 80
 08:23     18:17    Daglengte: 9:54 Zondag 25 Okt
00:00 249 J/kg -1.5 K 0 % 0 % 0 % 0 m²/s² 0 0 0.48 80
01:00 228 J/kg -1.0 K 0 % 0 % 0 % 0 m²/s² 0 0 1.19 3
01:00 158 J/kg -0.8 K 0 % 0 % 0 % 0 m²/s² 0 0 1.18 3
02:00 191 J/kg -1.5 K 0 % 0 % 0 % 0 m²/s² 0 0 0.36 2
03:00 270 J/kg -2.0 K 0 % 0 % 0 % 0 m²/s² 0 0 -0.32 80
04:00 386 J/kg -2.5 K 0 % 0 % 0 % 0 m²/s² 0 0 -0.82 2
05:00 340 J/kg -2.5 K 0 % 0 % 0 % 0 m²/s² 0 0 -1.12 2
06:00 141 J/kg -1.9 K 0 % 0 % 0 % 0 m²/s² 0 0 -0.43 1
07:00 0 J/kg -0.6 K 0 % 0 % 0 % 0 m²/s² 0 0 0.03
08:00 0 J/kg -2.2 K 0 % 0 % 0 % 0 m²/s² 0 0 -0.07
Temp Baro Wind Neerslag
  EWN Forecast EWN WRFDA DWD ICON FMI HIRLAM MET Norway GFS
 08:18     18:24    Daglengte: 10:06 Vandaag
10:00 6.8° 1008.4 hPa 1.2 m/s 0.0 mm 6.5° 1006.6 hPa 1.2 m/s 0.0 mm 5.2° 1008.5 hPa 1.0 m/s -2.0 mm 7.3° 1008.3 hPa 1.1 m/s 0.0 mm 8.0° 1008.6 hPa 1.6 m/s 8.6° 1008.2 hPa 1.4 m/s
13:00 10.3° 1008.4 hPa 2.6 m/s 0.0 mm 10.0° 1006.4 hPa 2.6 m/s 0.0 mm 10.8° 1008.5 hPa 2.5 m/s 0.0 mm 9.1° 1008.5 hPa 1.9 m/s 0.0 mm 10.8° 1008.5 hPa 2.6 m/s 9.8° 1008.4 hPa 2.8 m/s
16:00 10.6° 1007.1 hPa 4.0 m/s 0.0 mm 10.7° 1005.6 hPa 4.4 m/s 0.1 mm 10.8° 1006.9 hPa 4.3 m/s 0.0 mm 9.8° 1007.4 hPa 3.6 m/s 0.0 mm 10.8° 1007.4 hPa 3.5 m/s 9.4° 1007.7 hPa 2.8 m/s
19:00 8.9° 1006.0 hPa 3.6 m/s 0.0 mm 8.7° 1004.9 hPa 3.7 m/s 0.1 mm 8.3° 1006.2 hPa 3.4 m/s 0.0 mm 8.9° 1006.1 hPa 3.8 m/s 0.0 mm 9.3° 1006.1 hPa 3.3 m/s 6.6° 1006.0 hPa 3.1 m/s
22:00 8.5° 1004.7 hPa 5.5 m/s 0.2 mm 8.3° 1004.1 hPa 5.8 m/s 0.7 mm 8.1° 1004.7 hPa 5.1 m/s 0.0 mm 8.9° 1004.7 hPa 5.9 m/s 0.0 mm 8.6° 1005.2 hPa 4.9 m/s 7.5° 1005.1 hPa 4.4 m/s
 08:20     18:21    Daglengte: 10:01 Morgen
01:00 8.7° 1002.3 hPa 6.0 m/s 1.7 mm 9.1° 1001.8 hPa 5.5 m/s 2.6 mm 7.8° 1002.0 hPa 6.7 m/s 1.6 mm 8.7° 1002.3 hPa 6.2 m/s 0.0 mm 9.2° 1002.6 hPa 5.1 m/s 8.2° 1003.4 hPa 3.4 m/s
04:00 9.5° 1001.9 hPa 3.8 m/s 4.7 mm 8.9° 1002.2 hPa 2.7 m/s 10.4 mm 9.5° 1001.5 hPa 3.8 m/s 2.4 mm 10.2° 1001.7 hPa 3.7 m/s 0.0 mm 9.3° 1002.8 hPa 4.0 m/s 8.7° 1003.1 hPa 3.2 m/s
07:00 7.6° 1002.8 hPa 3.3 m/s 0.8 mm 5.0° 1002.8 hPa 3.5 m/s 12.6 mm 8.7° 1002.3 hPa 2.8 m/s 0.3 mm 7.5° 1002.8 hPa 2.8 m/s 0.0 mm 7.6° 1003.7 hPa 3.2 m/s 5.9° 1003.9 hPa 3.5 m/s
10:00 8.5° 1004.3 hPa 3.5 m/s 0.0 mm 8.9° 1003.9 hPa 5.0 m/s 13.1 mm 8.4° 1004.0 hPa 3.0 m/s 0.0 mm 7.7° 1004.1 hPa 3.3 m/s 0.0 mm 8.5° 1005.9 hPa 3.2 m/s 8.0° 1005.8 hPa 3.1 m/s
13:00 10.3° 1005.5 hPa 5.4 m/s 1.1 mm 10.3° 1005.3 hPa 6.6 m/s 13.9 mm 9.5° 1005.4 hPa 5.6 m/s 0.2 mm 10.5° 1005.3 hPa 5.6 m/s 0.0 mm 10.4° 1006.4 hPa 4.9 m/s 10.1° 1006.8 hPa 5.6 m/s
16:00 10.7° 1005.2 hPa 5.3 m/s 0.0 mm 9.7° 1005.4 hPa 3.7 m/s 14.1 mm 10.1° 1005.0 hPa 5.2 m/s 0.1 mm 10.9° 1005.2 hPa 5.9 m/s 0.0 mm 10.8° 1006.3 hPa 5.3 m/s 10.0° 1006.2 hPa 4.8 m/s
19:00 9.0° 1004.1 hPa 4.7 m/s 0.0 mm 8.2° 1003.6 hPa 5.4 m/s 14.6 mm 7.8° 1004.2 hPa 4.1 m/s 0.0 mm 9.2° 1004.0 hPa 4.3 m/s 0.0 mm 9.1° 1004.8 hPa 4.6 m/s 7.7° 1004.6 hPa 3.8 m/s
22:00 9.0° 1000.5 hPa 7.5 m/s 1.2 mm 8.7° 1000.9 hPa 7.9 m/s 14.9 mm 8.2° 1000.7 hPa 7.4 m/s 0.0 mm 8.8° 1000.7 hPa 7.4 m/s 0.0 mm 9.3° 1000.7 hPa 6.6 m/s 8.0° 1001.8 hPa 5.3 m/s
 08:21     18:19    Daglengte: 9:58 Zaterdag 24 Okt
01:00 11.0° 995.1 hPa 10.3 m/s 6.1 mm 10.4° 995.7 hPa 11.7 m/s 21.9 mm 9.7° 995.0 hPa 9.8 m/s 2.6 mm 10.9° 995.2 hPa 10.4 m/s 0.0 mm 11.4° 996.2 hPa 8.5 m/s 11.1° 995.7 hPa 8.5 m/s
04:00 12.2° 990.3 hPa 10.0 m/s 6.2 mm 12.2° 990.5 hPa 11.2 m/s 23.3 mm 12.1° 988.9 hPa 11.4 m/s 1.6 mm 12.8° 990.5 hPa 9.2 m/s 13.2° 991.0 hPa 8.4 m/s
07:00 10.8° 989.5 hPa 7.3 m/s 8.9 mm 9.9° 988.8 hPa 6.1 m/s 30.2 mm 12.1° 987.5 hPa 8.9 m/s 7.0 mm 10.7° 989.8 hPa 7.3 m/s 10.0° 989.2 hPa 6.0 m/s
10:00 10.0° 990.4 hPa 5.6 m/s 6.1 mm 10.3° 988.0 hPa 5.3 m/s 40.3 mm 10.4° 990.1 hPa 5.6 m/s 1.1 mm 10.0° 991.6 hPa 6.1 m/s 8.7° 988.9 hPa 6.1 m/s
13:00 10.6° 990.7 hPa 7.7 m/s 5.7 mm 11.0° 988.2 hPa 7.0 m/s 46.0 mm 10.6° 991.0 hPa 7.6 m/s 0.2 mm 10.4° 991.8 hPa 8.3 m/s 9.8° 989.2 hPa 6.5 m/s
16:00 10.6° 989.5 hPa 8.0 m/s 0.0 mm 10.7° 987.3 hPa 8.5 m/s 51.3 mm 9.9° 989.9 hPa 8.0 m/s 0.0 mm 10.6° 990.3 hPa 7.5 m/s 9.8° 988.2 hPa 5.9 m/s
19:00 8.8° 988.5 hPa 6.9 m/s 0.0 mm 8.7° 986.7 hPa 6.4 m/s 52.8 mm 8.0° 988.8 hPa 6.6 m/s 0.0 mm 8.7° 989.2 hPa 6.7 m/s 7.5° 987.5 hPa 4.8 m/s
22:00 8.7° 986.8 hPa 7.8 m/s 6.0 mm 8.9° 985.7 hPa 7.8 m/s 53.2 mm 8.2° 986.8 hPa 7.8 m/s 0.0 mm 8.6° 987.9 hPa 7.2 m/s 7.3° 987.3 hPa 5.0 m/s
 08:23     18:17    Daglengte: 9:54 Zondag 25 Okt
01:00 8.7° 986.4 hPa 7.7 m/s 14.5 mm 8.8° 986.9 hPa 6.5 m/s 56.6 mm 8.5° 985.6 hPa 6.6 m/s 1.0 mm 8.5° 986.6 hPa 7.8 m/s 7.4° 988.1 hPa 5.4 m/s
03:00 8.2° 987.4 hPa 6.4 m/s 6.6 mm 8.2° 987.2 hPa 4.9 m/s 57.1 mm 8.5° 986.0 hPa 6.0 m/s 0.3 mm 8.1° 988.0 hPa 7.0 m/s 7.1° 988.4 hPa 4.2 m/s
06:00 7.6° 988.8 hPa 5.6 m/s 6.5 mm 7.8° 987.6 hPa 5.1 m/s 58.8 mm 7.1° 988.3 hPa 4.5 m/s 0.1 mm 7.7° 989.4 hPa 6.3 m/s 5.9° 988.7 hPa 3.5 m/s
09:00 9.2° 990.8 hPa 5.6 m/s 62.9 mm 8.7° 988.9 hPa 3.8 m/s 62.9 mm 9.2° 991.1 hPa 5.9 m/s 6.9° 990.1 hPa 2.8 m/s
12:00 11.0° 992.6 hPa 5.7 m/s 64.2 mm 11.9° 991.4 hPa 6.7 m/s 64.2 mm 10.8° 992.8 hPa 5.5 m/s 11.1° 992.7 hPa 4.9 m/s
15:00 9.6° 995.3 hPa 5.2 m/s 19.4 mm 9.5° 995.4 hPa 5.2 m/s 10.4° 994.3 hPa 4.4 m/s 19.4 mm
18:00 8.7° 996.7 hPa 4.9 m/s 19.6 mm 8.9° 996.7 hPa 5.1 m/s 7.1° 996.8 hPa 3.2 m/s 19.6 mm
21:00 8.4° 998.9 hPa 5.2 m/s 19.6 mm 8.6° 998.9 hPa 5.3 m/s 6.3° 999.3 hPa 3.1 m/s 19.6 mm
 08:25     18:15    Daglengte: 9:50 Maandag 26 Okt
00:00 8.2° 1001.0 hPa 5.4 m/s 20.3 mm 8.3° 1001.0 hPa 5.6 m/s 7.0° 1001.3 hPa 3.5 m/s 20.3 mm
03:00 8.1° 1002.6 hPa 4.7 m/s 20.5 mm 8.2° 1002.6 hPa 4.8 m/s 6.8° 1003.1 hPa 3.4 m/s 20.5 mm
06:00 8.0° 1004.3 hPa 4.0 m/s 20.5 mm 8.2° 1004.2 hPa 4.1 m/s 6.1° 1005.7 hPa 2.8 m/s 20.5 mm
09:00 9.3° 1006.1 hPa 4.8 m/s 20.7 mm 9.4° 1006.0 hPa 5.0 m/s 8.0° 1007.4 hPa 2.3 m/s 20.7 mm
12:00 10.7° 1007.8 hPa 5.7 m/s 20.8 mm 10.6° 1007.8 hPa 5.9 m/s 11.2° 1007.7 hPa 3.5 m/s 20.8 mm
15:00 9.9° 1007.4 hPa 4.6 m/s 20.8 mm 9.8° 1007.5 hPa 4.7 m/s 10.8° 1006.7 hPa 3.9 m/s 20.8 mm
18:00 9.0° 1006.9 hPa 3.5 m/s 20.8 mm 9.1° 1007.1 hPa 3.5 m/s 7.6° 1005.3 hPa 3.0 m/s 20.8 mm
21:00 9.6° 1003.7 hPa 4.9 m/s 21.7 mm 9.7° 1003.9 hPa 4.8 m/s 8.0° 1002.5 hPa 5.7 m/s 21.7 mm
 08:27     18:13    Daglengte: 9:46 Dinsdag 27 Okt
00:00 10.2° 1000.4 hPa 6.2 m/s 24.2 mm 10.3° 1000.6 hPa 6.1 m/s 9.2° 997.7 hPa 7.7 m/s 24.2 mm
03:00 11.8° 996.1 hPa 6.4 m/s 24.7 mm 11.8° 996.4 hPa 6.4 m/s 11.6° 993.6 hPa 6.3 m/s 24.7 mm
06:00 13.2° 992.2 hPa 6.6 m/s 25.6 mm 13.3° 992.1 hPa 6.8 m/s 12.2° 992.8 hPa 4.6 m/s 25.6 mm
09:00 12.7° 992.5 hPa 7.2 m/s 25.8 mm 12.9° 992.5 hPa 7.6 m/s 10.5° 993.0 hPa 3.2 m/s 25.8 mm
12:00 12.4° 993.0 hPa 8.2 m/s 26.5 mm 12.5° 992.9 hPa 8.3 m/s 10.7° 994.3 hPa 7.2 m/s 26.5 mm
15:00 11.7° 991.1 hPa 8.8 m/s 27.1 mm 11.8° 990.8 hPa 8.9 m/s 10.1° 994.6 hPa 7.1 m/s 27.1 mm
18:00 10.8° 989.2 hPa 9.2 m/s 27.4 mm 11.1° 988.7 hPa 9.6 m/s 7.3° 994.2 hPa 4.6 m/s 27.4 mm
21:00 10.3° 988.6 hPa 9.5 m/s 27.9 mm 10.5° 988.0 hPa 9.8 m/s 8.1° 994.5 hPa 5.3 m/s 27.9 mm
 08:29     18:11    Daglengte: 9:42 Woensdag 28 Okt
00:00 9.8° 988.0 hPa 9.8 m/s 29.1 mm 9.9° 987.4 hPa 10.1 m/s 8.6° 994.6 hPa 6.4 m/s 29.1 mm
03:00 9.4° 989.1 hPa 10.4 m/s 29.9 mm 9.6° 988.5 hPa 10.9 m/s 6.9° 995.0 hPa 4.8 m/s 29.9 mm
06:00 9.2° 990.2 hPa 11.2 m/s 31.4 mm 9.3° 989.7 hPa 11.7 m/s 7.5° 995.5 hPa 5.4 m/s 31.4 mm
09:00 9.7° 993.6 hPa 11.0 m/s 32.3 mm 9.9° 993.3 hPa 11.4 m/s 7.6° 996.4 hPa 5.5 m/s 32.3 mm
12:00 10.3° 997.0 hPa 10.9 m/s 33.9 mm 10.4° 996.9 hPa 11.2 m/s 8.8° 997.5 hPa 7.5 m/s 33.9 mm
15:00 9.7° 1000.8 hPa 9.6 m/s 35.5 mm 9.9° 1001.0 hPa 9.8 m/s 8.4° 998.8 hPa 6.8 m/s 35.5 mm
18:00 9.1° 1004.7 hPa 8.1 m/s 36.4 mm 9.3° 1005.0 hPa 8.4 m/s 6.9° 1001.0 hPa 4.9 m/s 36.4 mm
21:00 9.2° 1006.6 hPa 7.0 m/s 36.6 mm 9.4° 1007.0 hPa 7.3 m/s 6.3° 1002.0 hPa 3.7 m/s 36.6 mm
 08:31     18:09    Daglengte: 9:38 Donderdag 29 Okt
00:00 9.5° 1008.1 hPa 6.2 m/s 38.0 mm 9.6° 1009.1 hPa 6.2 m/s 8.0° 997.7 hPa 6.4 m/s 38.0 mm
03:00 10.8° 1006.9 hPa 7.3 m/s 44.1 mm 10.7° 1008.5 hPa 7.3 m/s 11.9° 988.9 hPa 7.8 m/s 44.1 mm
06:00 11.7° 1006.8 hPa 8.4 m/s 44.2 mm 11.8° 1008.0 hPa 8.4 m/s 10.5° 994.0 hPa 8.5 m/s 44.2 mm
12:00 12.9° 1006.6 hPa 9.3 m/s 45.0 mm 13.1° 1007.2 hPa 9.6 m/s 10.5° 999.6 hPa 5.7 m/s 45.0 mm
18:00 9.4° 1012.5 hPa 7.6 m/s 46.1 mm 9.5° 1013.4 hPa 8.0 m/s 8.2° 1002.7 hPa 3.7 m/s 46.1 mm
 08:33     18:07    Daglengte: 9:34 Vrijdag 30 Okt
00:00 9.9° 1018.1 hPa 6.4 m/s 46.2 mm 10.2° 1019.2 hPa 6.7 m/s 6.5° 1005.8 hPa 2.7 m/s 46.2 mm
06:00 9.3° 1022.2 hPa 5.9 m/s 46.4 mm 9.7° 1023.5 hPa 6.2 m/s 5.0° 1007.6 hPa 2.8 m/s 46.4 mm
12:00 11.8° 1026.1 hPa 5.2 m/s 46.6 mm 12.0° 1027.5 hPa 5.2 m/s 10.2° 1011.1 hPa 4.8 m/s 46.6 mm
18:00 10.6° 1026.7 hPa 3.4 m/s 46.8 mm 11.1° 1028.1 hPa 3.5 m/s 5.6° 1011.0 hPa 2.2 m/s 46.8 mm
 08:35     18:05    Daglengte: 9:30 Zaterdag 31 Okt
00:00 11.5° 1027.3 hPa 4.6 m/s 46.9 mm 11.9° 1029.5 hPa 4.4 m/s 7.0° 1003.2 hPa 6.5 m/s 46.9 mm
06:00 12.9° 1025.3 hPa 4.6 m/s 60.8 mm 12.8° 1029.0 hPa 4.4 m/s 14.1° 984.2 hPa 6.4 m/s 60.8 mm
12:00 11.8° 981.1 hPa 13.3 m/s 61.6 mm 11.8° 981.1 hPa 13.3 m/s 61.6 mm
18:00 9.8° 991.1 hPa 11.9 m/s 62.4 mm 9.8° 991.1 hPa 11.9 m/s 62.4 mm
 08:36     18:03    Daglengte: 9:27 Zondag 01 Nov
00:00 9.8° 994.8 hPa 5.6 m/s 62.4 mm 9.8° 994.8 hPa 5.6 m/s 62.4 mm
06:00 9.7° 1015.0 hPa 2.8 m/s 0.8 mm
12:00 11.9° 1016.0 hPa 3.8 m/s 0.7 mm
18:00 10.5° 1015.9 hPa 3.0 m/s 0.6 mm
 08:38     18:02    Daglengte: 9:24 Maandag 02 Nov
00:00 9.5° 1016.8 hPa 2.8 m/s 0.4 mm
06:00 9.2° 1016.7 hPa 2.5 m/s 0.4 mm
12:00 11.5° 1017.3 hPa 2.9 m/s 1.3 mm
18:00 9.7° 1017.7 hPa 2.3 m/s 0.9 mm
 08:40     18:00    Daglengte: 9:20 Dinsdag 03 Nov
00:00 8.9° 1020.0 hPa 2.1 m/s 0.4 mm
06:00 8.2° 1021.4 hPa 1.7 m/s 0.3 mm
12:00 11.1° 1022.7 hPa 1.9 m/s 0.3 mm
18:00 9.3° 1022.7 hPa 1.6 m/s 0.6 mm
 08:42     17:58    Daglengte: 9:16 Woensdag 04 Nov
00:00 7.8° 1023.7 hPa 1.6 m/s 0.0 mm
06:00 7.2° 1023.4 hPa 1.2 m/s 0.5 mm
12:00 10.4° 1023.5 hPa 1.8 m/s 0.8 mm
18:00 8.6° 1022.7 hPa 1.9 m/s 0.8 mm
 08:44     17:56    Daglengte: 9:12 Donderdag 05 Nov
00:00 7.7° 1022.6 hPa 1.4 m/s 0.4 mm
06:00 7.6° 1020.9 hPa 1.7 m/s 0.5 mm
12:00 10.4° 1021.0 hPa 2.2 m/s 0.6 mm
18:00 8.8° 1020.6 hPa 2.2 m/s 0.5 mm
 08:46     17:54    Daglengte: 9:08 Vrijdag 06 Nov
00:00 7.8° 1021.2 hPa 2.3 m/s 0.6 mm
06:00 7.0° 1020.8 hPa 2.1 m/s 0.8 mm
FMI Hirlam - 7.5 km EWN WRFDA - 12 km DWD ICON - 7 km GFS - 25 km Basiskaart






























































Updatetijd (Europe/Amsterdam) Resolutie Lengte Stap
FMI Hirlam 07:15, 13:15, 19:15, 01:15 7.5 km 49h 1h
EWN WRFDA 09:30, 15:30, 21:30, 03:30 12 km 73h 1h
DWD ICON 06:00, 12:00, 18:00, 00:00 7 km 75h 1h
GFS 08:15, 14:15, 20:15, 02:15 25 km 237h 3h
30+ mm
25-30 mm
20-25 mm
15-20 mm
10-15 mm
6-10 mm
4-6 mm
2-4 mm
1-2 mm
0.5-1 mm
0.2-0.5 mm
0.1-0.2 mm
30+ mm
25-30 mm
20-25 mm
15-20 mm
10-15 mm
6-10 mm
4-6 mm
2-4 mm
1-2 mm
0.5-1 mm
0.2-0.5 mm
0.1-0.2 mm
Sneeuwval
Natte sneeuw
Hagel
Vorst
30+ mm
25-30 mm
20-25 mm
15-20 mm
10-15 mm
6-10 mm
4-6 mm
2-4 mm
1-2 mm
0.5-1 mm
0.2-0.5 mm
0.1-0.2 mm
Sneeuwval
Natte sneeuw
Hagel
Vorst
Onweer
50 mm
40 mm
30 mm
26 mm
22 mm
18 mm
14 mm
10 mm
9 mm
8 mm
7 mm
6 mm
5 mm
4.5 mm
4 mm
3.5 mm
3 mm
2.5 mm
2 mm
1.5 mm
1 mm
0.8 mm
0.6 mm
0.4 mm
0.2 mm
0.05 mm
35°
30°
25°
20°
15°
10°
-5°
-10°
-15°
-20°
-25°
-30°
-35°
33> m/s
29 m/s
25 m/s
21 m/s
17 m/s
14 m/s
11 m/s
8 m/s
5 m/s
3 m/s
0 m/s
2600 J/kg
2400 J/kg
2200 J/kg
2000 J/kg
1800 J/kg
1600 J/kg
1400 J/kg
1200 J/kg
1000 J/kg
800 J/kg
600 J/kg
400 J/kg
200 J/kg
70 dBZ
65 dBZ
60 dBZ
55 dBZ
50 dBZ
45 dBZ
40 dBZ
35 dBZ
30 dBZ
25 dBZ
20 dBZ
15 dBZ
10 dBZ
5 dBZ
-1 K
-2 K
-3 K
-4 K
-5 K
-6 K
-7 K
-8 K
-9 K
950 m²/s²
900 m²/s²
850 m²/s²
800 m²/s²
750 m²/s²
700 m²/s²
650 m²/s²
600 m²/s²
550 m²/s²
500 m²/s²
450 m²/s²
400 m²/s²
350 m²/s²
300 m²/s²
250 m²/s²
200 m²/s²
150 m²/s²
100 m²/s²
46 m/s
44 m/s
42 m/s
40 m/s
38 m/s
36 m/s
34 m/s
32 m/s
30 m/s
28 m/s
26 m/s
24 m/s
22 m/s
20 m/s
16 m/s
12 m/s
8 m/s
4 m/s
30 m/s
28 m/s
26 m/s
24 m/s
22 m/s
20 m/s
18 m/s
16 m/s
14 m/s
12 m/s
10 m/s
8 m/s
6 m/s
4 m/s
2 m/s
3.0
2.8
2.6
2.4
2.2
2.0
1.8
1.6
1.4
1.2
1.0
0.8
0.6
0.4
0.2
15
14
13
12
11
10
9
8
7
6
5
4
3
2
1
90%
80%
70%
60%
50%
40%
30%
20%
10%
42
40
38
36
34
32
30
28
26
24
22
20
18
16
14
12
90+ cm
80-90 cm
70-80 cm
60-70 cm
50-60 cm
40-50 cm
30-40 cm
20-30 cm
10-20 cm
1-10 cm
Sneeuwval
Natte sneeuw
Regen
>120 mm
115 mm
110 mm
105 mm
100 mm
95 mm
90 mm
85 mm
80 mm
75 mm
70 mm
65 mm
60 mm
55 mm
50 mm
45 mm
45 mm
40 mm
35 mm
30 mm
25 mm
20 mm
15 mm
10 mm
5 mm
0.1 mm
960 hPa
880 hPa
800 hPa
720 hPa
640 hPa
560 hPa
584 gpdm
568 gpdm
552 gpdm
536 gpdm
520 gpdm
504 gpdm
488 gpdm
Extreem zwaar Noodweer Kans op onweer
15% 15% 5% 50% 15%

Dag




Kaart






35°
30°
25°
20°
15°
10°
-5°
-10°
-15°
-20°
-25°
-30°
-35°
33> m/s
29 m/s
25 m/s
21 m/s
17 m/s
14 m/s
11 m/s
8 m/s
5 m/s
3 m/s
0 m/s
Extreem zwaar Noodweer Kans op onweer
15% 15% 5% 50%